Theta_e
299 292 289 293 295 296 296 293 291 293 297 295 295 294 296 297 297 297 297 303 300 301 303 304 304 302 302 302 301 301 300 300 300 299 300 300 301 302 302 304 303 304 304 304
294 291 298 300 300 297 295 292 291 294 298 295 291 291 294 296 297 298 297 301 299 300 301 303 302 301 300 300 300 298 298 298 298 298 298 299 300 301 300 301 300 302 301 302
293 296 302 299 297 295 293 292 292 292 295 294 292 290 292 297 299 300 303 301 300 299 300 302 301 300 299 298 297 297 297 297 297 297 298 297 297 297 297 296 297 297 298 296
294 299 298 296 294 295 290 296 296 293 290 284 292 282 290 294 296 298 300 300 299 300 302 302 301 299 298 297 297 297 297 296 297 297 295 293 292 291 293 293 294 294 295 294
292 294 293 292 293 296 292 298 294 293 288 286 287 283 288 293 293 295 297 300 300 300 301 300 300 298 297 297 296 295 296 296 295 294 294 292 291 291 292 291 290 291 292 292
292 298 294 294 298 297 298 294 292 290 287 280 286 284 285 288 292 296 299 300 301 300 301 301 299 298 296 295 295 294 295 294 295 293 292 291 289 289 288 288 288 288 289 290
289 290 294 297 293 295 293 288 279 278 278 278 290 286 288 293 299 300 299 300 301 301 300 299 297 295 295 294 293 294 294 293 293 292 291 290 290 289 288 287 287 287 287 287
283 282 290 295 293 290 290 288 279 277 276 280 289 282 286 297 299 302 302 301 302 300 301 299 297 295 294 294 293 292 293 293 293 292 291 290 289 289 288 286 286 287 287 287
288 287 295 296 296 294 289 286 292 286 285 280 283 287 292 299 299 301 302 302 300 300 300 299 297 295 293 293 293 292 292 293 292 292 290 289 289 288 287 286 286 287 287 288
292 285 294 295 296 295 291 294 284 283 278 276 281 282 283 292 295 299 299 300 302 303 301 298 296 295 294 293 293 292 292 292 292 291 290 289 288 289 289 287 287 287 287 286
292 288 288 295 291 289 290 288 288 288 284 277 276 278 293 293 295 295 297 300 302 303 303 299 296 295 294 294 293 292 291 291 290 290 289 288 287 288 288 287 287 286 286 287
293 289 281 287 292 296 294 289 289 281 281 282 281 281 295 297 297 298 298 300 302 304 303 298 297 295 294 293 292 292 290 289 290 290 288 287 287 286 285 285 285 284 283 284
292 285 279 282 287 289 287 288 288 288 286 281 279 280 294 297 297 299 298 299 300 303 300 298 296 295 295 293 292 291 290 288 287 287 286 285 284 284 283 283 284 283 282 282
295 288 283 278 282 285 282 285 287 285 278 280 282 285 290 292 293 297 298 298 297 301 300 296 295 295 293 292 289 288 287 286 286 286 284 283 282 282 282 283 283 282 281 280
290 282 284 286 286 285 285 285 286 284 285 281 283 284 289 290 290 291 296 299 299 299 296 295 294 293 292 288 287 286 286 285 284 283 281 281 281 282 282 282 281 281 280 280
291 281 285 282 286 286 284 286 285 285 286 285 285 284 289 292 294 296 297 299 298 296 295 294 295 292 289 286 285 285 284 284 283 280 278 277 280 279 278 279 279 280 279 278
287 284 282 278 285 284 279 283 285 286 288 286 280 285 290 289 294 294 294 298 297 295 295 295 292 288 285 284 285 284 283 283 280 279 279 277 277 276 272 277 278 274 273 274
286 284 284 278 279 271 282 290 290 287 288 288 288 289 290 290 291 289 290 293 297 295 292 286 285 284 283 284 284 283 282 280 279 277 277 279 275 271 275 271 269 270 270 269
289 284 278 276 276 280 283 285 283 282 283 289 287 289 291 292 290 286 287 286 288 287 284 283 282 282 282 283 283 282 280 279 278 273 272 270 270 269 270 268 269 270 273 273
286 285 279 276 273 266 281 288 292 291 279 290 290 291 291 290 280 285 286 285 284 283 283 282 282 281 282 282 282 279 277 276 274 273 273 274 273 271 270 270 272 273 273 274
279 278 277 277 276 278 287 290 292 279 279 290 291 290 289 283 284 286 284 284 284 283 283 283 281 281 281 282 280 277 276 273 273 277 278 276 280 278 274 274 274 275 275 277
279 278 275 278 276 275 291 290 284 286 291 292 291 289 285 286 284 284 283 283 283 282 283 282 281 280 282 280 279 277 275 276 278 277 278 278 277 281 280 278 277 278 277 274
276 281 277 281 279 288 291 288 291 294 291 292 290 288 286 284 283 283 281 282 282 283 282 283 281 282 282 281 280 276 276 279 279 279 278 276 280 279 276 274 273 274 274 273
286 288 282 284 286 289 291 292 293 292 291 291 290 287 286 284 283 282 281 281 282 283 281 282 282 282 281 282 281 279 280 280 279 279 278 278 277 277 275 274 274 272 271 270
283 287 285 283 287 289 292 293 292 294 293 291 288 286 284 284 283 282 282 282 283 282 283 282 281 281 281 282 281 282 281 281 279 278 277 276 276 275 274 273 272 272 268 270
285 283 281 280 289 289 290 292 293 292 290 288 286 285 285 284 283 283 282 283 284 284 283 282 282 282 282 281 280 281 281 280 278 277 277 276 275 274 273 273 272 276 275 275
Wind_Speed
7 4 7 11 11 10 11 7 6 6 4 2 7 8 10 9 5 8 8 16 16 16 12 13 12 9 9 8 7 7 7 7 6 4 4 4 3 4 5 7 11 10 9 10
4 10 12 12 12 10 6 4 7 8 11 7 6 7 6 6 7 8 5 16 18 16 14 14 11 8 8 8 7 7 7 7 6 4 4 3 3 4 4 8 10 12 11 14
13 9 14 17 12 7 5 4 6 9 10 7 7 13 6 7 10 7 16 21 19 19 17 15 12 9 9 8 6 7 7 7 7 7 5 5 4 4 6 8 8 9 13 14
11 16 17 12 7 7 10 5 8 6 5 3 5 11 9 9 7 5 13 17 17 17 15 13 12 10 10 7 6 8 8 7 7 8 6 7 4 4 5 6 7 7 12 12
7 4 7 7 4 5 7 8 1 3 5 6 3 3 13 7 11 7 8 14 14 16 15 14 13 11 9 8 6 7 8 7 7 7 7 5 6 4 5 5 7 9 9 10
8 11 3 2 5 6 1 3 4 2 2 6 7 8 13 7 9 5 9 10 15 15 15 14 13 14 9 7 7 7 8 7 7 7 8 8 8 7 6 6 6 6 6 7
7 16 14 5 3 1 4 5 2 3 3 8 7 7 11 5 7 17 21 17 15 17 16 16 15 12 9 8 7 7 8 7 7 8 8 8 8 8 8 6 6 6 6 6
7 6 17 12 13 9 9 10 7 6 5 4 11 5 6 14 10 18 17 16 15 13 15 14 12 11 10 9 8 8 7 6 6 7 8 7 8 6 5 6 4 5 6 6
4 10 4 8 8 11 5 8 14 5 3 2 5 7 6 14 16 15 11 11 9 11 13 12 13 11 10 9 8 8 7 5 6 7 7 7 7 7 5 6 4 5 6 8
4 6 6 5 8 7 7 2 4 3 3 4 4 4 3 8 11 10 10 10 11 9 5 13 14 12 10 9 8 8 7 6 6 6 5 6 6 7 7 5 7 7 7 7
6 1 9 5 3 2 0 2 2 2 4 4 2 6 6 5 5 6 5 8 12 12 3 6 8 11 10 9 7 7 7 6 6 5 5 6 5 7 6 6 6 6 6 7
4 1 2 4 3 7 5 3 6 5 6 3 4 8 4 2 6 7 6 6 10 16 15 16 12 13 13 10 7 6 6 6 4 6 5 5 6 7 6 5 5 6 6 6
4 3 0 7 4 3 2 8 4 6 2 8 5 8 1 1 5 10 11 9 7 16 17 13 12 11 8 9 7 6 6 5 7 6 7 7 8 7 6 7 7 7 8 8
2 2 3 4 7 8 7 12 10 6 3 5 6 7 15 10 11 11 9 12 12 14 16 15 12 10 10 11 9 7 7 7 8 7 8 8 6 6 6 6 7 8 8 8
5 5 5 10 13 10 12 15 16 14 11 9 8 6 11 11 7 8 7 10 14 16 17 17 14 12 12 11 10 9 9 9 8 7 7 6 5 6 7 7 7 6 8 8
4 4 3 7 8 10 14 17 17 17 15 14 15 15 7 5 2 6 6 11 15 15 17 16 16 16 12 11 11 10 9 8 9 7 5 3 5 6 6 6 5 6 7 8
4 3 4 10 2 5 7 19 13 16 13 11 7 8 6 5 6 6 6 7 16 15 15 15 15 12 12 12 11 10 10 9 7 5 3 3 4 6 4 4 5 4 5 4
6 3 4 4 2 5 14 4 8 11 12 9 10 9 8 1 9 12 11 4 10 13 12 14 13 13 12 12 11 12 10 8 6 5 4 4 5 4 4 4 4 3 3 4
6 4 3 5 8 10 19 5 1 6 17 14 12 9 4 8 6 9 12 14 7 11 11 12 12 13 11 11 11 11 9 8 7 4 3 3 4 4 4 4 4 2 5 4
13 8 6 5 7 8 24 6 7 3 14 2 5 6 6 3 3 2 5 10 11 11 10 13 12 12 13 10 10 10 8 7 6 4 4 4 4 4 4 3 2 1 2 4
4 3 9 12 9 9 11 6 9 7 11 2 5 3 2 2 3 8 12 10 9 11 12 10 10 10 11 10 10 9 7 6 4 5 5 4 4 4 3 2 2 3 4 6
8 4 4 3 4 13 2 1 6 6 3 5 5 3 4 8 9 9 11 12 12 12 12 11 10 9 8 10 10 9 8 5 5 5 5 5 4 5 6 7 7 8 5 7
5 5 4 5 6 6 3 3 7 5 4 4 4 3 11 12 7 10 11 11 11 12 11 10 10 10 9 10 9 10 7 8 6 6 5 3 5 7 7 8 6 6 7 6
2 3 1 5 3 7 11 1 5 4 2 4 5 8 7 9 12 10 9 9 9 10 10 9 11 10 9 9 10 10 9 9 8 8 5 6 8 8 8 6 6 6 5 5
5 1 3 6 11 13 9 3 5 5 6 7 6 7 8 11 10 10 9 10 9 8 9 10 9 9 9 10 11 11 11 10 8 8 7 7 6 8 7 6 5 6 2 6
6 9 5 7 5 8 3 0 4 8 9 9 9 7 8 9 11 11 9 8 8 9 10 9 8 8 10 11 10 11 11 10 9 9 7 6 6 6 6 7 6 12 13 14
Wind_Direction
189 172 216 224 220 230 254 286 307 299 286 242 232 230 247 251 206 201 190 158 131 130 127 114 105 101 88 69 64 52 49 23 24 6 21 17 14 20 20 54 28 23 29 14
274 229 234 241 250 250 239 294 299 305 309 301 284 256 247 242 242 225 199 140 139 139 136 124 118 110 101 90 81 71 65 40 23 18 11 26 7 37 31 41 21 30 17 30
225 229 225 239 249 290 272 204 261 266 278 293 351 294 299 282 262 200 141 146 149 150 146 140 130 125 104 93 93 86 75 59 39 27 20 10 16 26 32 23 25 15 28 45
247 240 251 256 223 212 261 298 294 309 359 270 64 289 268 290 292 113 134 148 148 152 147 138 131 117 113 113 93 91 79 61 53 36 43 48 43 34 28 27 28 19 28 33
231 271 222 261 240 202 240 239 82 33 343 347 188 278 285 217 259 172 155 150 153 151 147 140 126 127 124 118 105 101 86 70 62 58 52 50 47 32 36 28 23 30 24 23
268 281 248 285 277 236 229 96 23 309 143 268 219 199 277 251 244 123 118 144 144 139 134 125 124 122 122 125 106 106 97 79 65 68 56 56 55 49 40 26 31 22 22 13
259 254 265 203 265 263 112 82 336 315 183 233 220 231 234 269 135 162 173 170 153 144 139 135 133 132 129 126 119 106 94 92 82 80 71 58 54 56 51 35 27 23 19 16
199 263 208 212 195 197 177 164 168 208 206 264 315 254 281 338 315 177 171 157 146 132 132 139 138 133 129 119 107 100 95 89 88 88 79 73 60 60 53 44 30 26 21 24
252 229 232 173 154 179 218 205 221 245 357 55 251 308 358 19 31 46 84 113 123 134 146 139 127 125 116 104 95 103 94 86 77 87 88 78 76 72 59 43 24 33 26 23
326 328 290 190 134 190 175 199 30 356 122 239 243 289 216 47 30 25 58 55 49 9 91 126 125 124 120 117 111 98 102 100 96 79 95 95 88 75 68 55 37 38 35 22
28 312 298 64 14 145 268 311 313 149 141 198 277 251 153 118 119 104 75 109 140 147 80 32 105 122 118 118 121 117 105 98 90 98 90 92 88 86 70 54 40 39 36 26
24 268 323 318 315 257 227 202 165 157 275 235 174 260 277 185 151 152 181 210 181 178 152 154 148 134 137 133 134 127 121 115 111 113 93 86 78 85 75 63 49 49 37 12
322 315 130 332 329 348 350 54 360 297 133 229 228 265 347 182 233 201 206 211 171 158 147 141 130 135 117 111 113 124 121 118 85 77 80 63 62 57 55 53 48 55 43 29
57 280 189 215 279 313 315 320 305 264 181 258 243 286 294 282 260 233 217 200 178 157 145 139 135 137 119 122 138 122 99 95 86 71 71 67 58 56 53 59 53 61 48 38
155 231 231 264 275 291 293 297 285 280 283 276 287 280 268 285 273 270 237 119 135 145 141 142 145 152 150 140 122 102 86 88 86 72 57 69 61 56 57 59 57 62 58 44
171 254 335 267 282 298 289 275 278 283 283 284 291 284 266 278 112 71 80 143 152 157 151 147 157 154 150 125 117 101 96 101 101 80 77 70 69 58 66 64 63 65 66 54
99 79 24 271 31 358 298 251 266 277 280 273 262 258 292 349 44 47 48 143 163 162 158 163 152 136 122 119 118 114 105 94 86 105 108 98 79 73 65 69 75 68 68 57
162 182 160 276 302 223 252 252 257 275 283 290 301 315 286 275 89 50 17 324 153 151 133 118 116 111 100 109 105 104 103 110 117 98 91 85 88 82 70 71 68 62 82 83
212 183 209 230 249 281 290 281 52 291 286 291 280 291 357 130 91 43 28 34 53 108 112 109 110 108 111 109 111 112 118 122 117 112 104 95 97 89 85 77 65 50 84 81
227 212 181 233 242 237 264 167 235 358 283 304 84 47 74 65 64 216 121 96 82 82 100 114 112 111 106 113 113 114 118 118 122 135 138 124 115 112 100 108 81 52 95 116
309 285 218 248 244 262 275 275 280 261 267 45 86 87 47 166 204 130 129 110 112 120 115 107 106 119 126 123 120 121 121 125 147 113 112 107 111 120 124 93 52 71 69 85
271 256 235 217 229 256 177 301 210 207 226 243 253 209 124 123 123 131 132 133 134 132 126 127 125 129 124 129 127 130 133 145 121 113 105 97 86 75 63 60 47 46 59 73
296 198 223 221 217 267 249 260 266 184 171 207 155 132 143 141 143 143 148 140 142 139 137 136 135 134 127 136 136 136 151 140 135 123 118 92 97 89 76 71 59 56 54 53
258 58 306 324 10 303 319 15 13 52 23 36 87 129 138 144 145 146 142 142 146 146 144 141 143 145 144 153 146 148 153 150 143 143 127 105 96 102 83 76 72 70 62 64
201 196 214 258 301 286 262 224 221 214 137 116 138 138 139 137 148 149 149 156 159 156 152 150 151 158 161 161 150 157 158 159 156 139 134 130 116 106 96 95 92 89 100 98
196 240 225 245 260 271 262 328 289 157 168 145 131 131 147 151 153 148 156 162 162 153 149 153 156 164 165 150 159 162 163 166 157 156 159 156 141 130 124 118 111 100 97 88